Weather History for KMKE - January, 2013

Change the Weather History Date:

Sunday, January 13, 2013

  Actual Average Record
Temperature  
Mean Temperature 21 °F 22 °F  
Max Temperature 28 °F 29 °F 55 °F (1961)
Min Temperature 14 °F 15 °F -18 °F (1929)
Degree Days  
Heating Degree Days 44 43  
Month to date heating degree days 479 554  
Since 1 July heating degree days 2808 3114  
Cooling Degree Days 0 0  
Month to date cooling degree days 0 0  
Year to date cooling degree days 0 0  
Moisture  
Dew Point 14 °F    
Average Humidity 80    
Maximum Humidity 92    
Minimum Humidity 67    
Precipitation  
Precipitation 0.13 in 0.06 in 1.32 in (1979)
Month to date precipitation 0.93 0.78  
Year to date precipitation 0.93 0.78  
Snow  
Snow 0.10 in 0.60 in 12.40 in (1979)
Month to date snowfall 0.2 6.3  
Since 1 July snowfall 7.1 19.6  
Snow Depth T in    
Sea Level Pressure  
Sea Level Pressure 30.03 in    
Wind  
Wind Speed 11 mph (WNW)    
Max Wind Speed 21 mph    
Max Gust Speed 26 mph    
Visibility 9 miles    
Events Snow    
T = Trace of Precipitation, MM = Missing Value Source: NWS Daily Summary

Daily Weather History Graph

Daily Weather History Graph

Search for Another Location

Airport or City:

Trip Planner

Search our weather history database for the weather conditions in past years. The results will help you decide how hot, cold, wet, or windy it might be!

Date:

Astronomy

Jan. 13, 2013 Rise Set
Actual Time 7:20 AM CST 4:40 PM CST
Civil Twilight 6:49 AM CST 5:12 PM CST
Nautical Twilight 6:14 AM CST 5:47 PM CST
Astronomical Twilight 5:40 AM CST 6:21 PM CST
Moon 8:14 AM CST (1/13) 7:23 PM CST (1/13)
Length of Visible Light 10h 22m
Length of Day
9h 19m
Waxing Crescent, 5% of the Moon is Illuminated
Jan 13
Waxing Crescent
Jan 18
First Quarter
Jan 26
Full
Feb 3
Last Quarter
Feb 10
New

Hourly Weather History & Observations

Time (CST) Temp. Windchill Dew Point Humidity Pressure Visibility Wind Dir Wind Speed Gust Speed Precip Events Conditions
12:52 AM 27.0 °F 16.1 °F 25.0 °F 92% 29.94 in 5.0 mi NNW 12.7 mph - 0.06 in Snow Light Snow
1:52 AM 27.0 °F 20.5 °F 23.0 °F 85% 29.94 in 6.0 mi NNW 5.8 mph - 0.05 in Snow Light Snow
2:39 AM 26.6 °F 19.1 °F 23.0 °F 86% 29.90 in 9.0 mi North 6.9 mph - 0.02 in Snow Light Snow
2:44 AM 26.6 °F 18.2 °F 21.2 °F 80% 29.88 in 10.0 mi North 8.1 mph - 0.02 in Snow Light Snow
2:52 AM 26.1 °F 19.4 °F 23.0 °F 88% 29.91 in 9.0 mi NNE 5.8 mph - 0.02 in Snow Light Snow
3:52 AM 26.1 °F 16.8 °F 21.0 °F 81% 29.96 in 10.0 mi WNW 9.2 mph - 0.00 in   Overcast
4:52 AM 24.1 °F 13.1 °F 19.0 °F 81% 29.92 in 10.0 mi NW 11.5 mph - N/A   Overcast
5:21 AM 24.8 °F 17.9 °F 17.6 °F 74% 29.93 in 10.0 mi NW 5.8 mph - N/A   Overcast
5:52 AM 23.0 °F 13.1 °F 17.1 °F 78% 29.99 in 10.0 mi WNW 9.2 mph - N/A   Overcast
6:52 AM 23.0 °F 14.7 °F 17.1 °F 78% 29.99 in 8.0 mi WNW 6.9 mph - 0.00 in Snow Light Snow
7:14 AM 21.2 °F 10.9 °F 17.6 °F 86% 29.96 in 5.0 mi WNW 9.2 mph - 0.00 in Snow Light Snow
7:52 AM 21.9 °F 12.5 °F 17.1 °F 82% 30.00 in 5.0 mi WNW 8.1 mph - 0.00 in Snow Light Snow
8:48 AM 21.2 °F 10.1 °F 15.8 °F 80% 29.98 in 1.8 mi WNW 10.4 mph - 0.00 in Snow Light Snow
8:52 AM 21.9 °F 11.7 °F 16.0 °F 78% 30.02 in 2.5 mi WNW 9.2 mph - 0.00 in Snow Light Snow
9:00 AM 21.2 °F 9.5 °F 15.8 °F 80% 30.00 in 7.0 mi WNW 11.5 mph - 0.00 in   Overcast
9:52 AM 21.9 °F 9.8 °F 15.1 °F 75% 30.02 in 10.0 mi NW 12.7 mph - 0.00 in   Overcast
10:52 AM 21.0 °F 10.6 °F 12.9 °F 71% 30.05 in 10.0 mi West 9.2 mph - N/A   Overcast
11:52 AM 21.0 °F 9.9 °F 12.9 °F 71% 29.99 in 10.0 mi WNW 10.4 mph - N/A   Overcast
12:52 PM 19.9 °F 9.3 °F 12.9 °F 74% 30.01 in 10.0 mi West 9.2 mph - N/A   Overcast
1:52 PM 21.0 °F 9.9 °F 12.9 °F 71% 30.02 in 10.0 mi West 10.4 mph - N/A   Mostly Cloudy
2:52 PM 19.9 °F 7.9 °F 12.0 °F 71% 30.03 in 10.0 mi NW 11.5 mph - N/A   Mostly Cloudy
3:52 PM 19.9 °F 7.9 °F 10.9 °F 68% 30.02 in 10.0 mi WNW 11.5 mph - N/A   Mostly Cloudy
4:52 PM 19.9 °F 6.7 °F 10.9 °F 68% 30.06 in 10.0 mi West 13.8 mph - N/A   Overcast
5:52 PM 19.9 °F 7.3 °F 10.9 °F 68% 30.08 in 10.0 mi West 12.7 mph 17.3 mph N/A   Overcast
6:30 PM 19.4 °F 7.9 °F 10.4 °F 68% 30.06 in 10.0 mi WNW 10.4 mph - N/A   Overcast
6:52 PM 19.0 °F 5.0 °F 10.0 °F 68% 30.12 in 10.0 mi West 15.0 mph 21.9 mph N/A   Mostly Cloudy
7:52 PM 18.0 °F 4.2 °F 9.0 °F 68% 30.14 in 9.0 mi West 13.8 mph 20.7 mph 0.00 in Snow Light Snow
8:52 PM 17.1 °F 2.0 °F 8.1 °F 68% 30.15 in 9.0 mi WNW 16.1 mph 23.0 mph 0.00 in Snow Light Snow
9:52 PM 15.1 °F -1.6 °F 6.1 °F 68% 30.19 in 9.0 mi WNW 18.4 mph 25.3 mph 0.00 in Snow Light Snow
10:52 PM 14.0 °F -1.4 °F 5.0 °F 67% 30.21 in 10.0 mi WNW 15.0 mph 24.2 mph 0.00 in   Mostly Cloudy
11:52 PM 14.0 °F -0.2 °F 5.0 °F 67% 30.22 in 10.0 mi West 12.7 mph - N/A   Mostly Cloudy